Location: Newark
(25.6108°S, 54.5803°W)
Time: 05:20:03
(UTC+00:00)

deb Explorer IX - Pass Details

Date: 27 October 2020
Orbit: 538 x 1104 km, 38.8° (Epoch: 27 November)

Event Time Altitude Azimuth Distance (km) Brightness Sun altitude
Rises 19:49:28 0° 303° (WNW) 3,526 ? 26.3°
Reaches altitude 10° 19:52:13 10° 303° (WNW) 2,496 ? 25.7°
Maximum altitude 19:58:07 89° 33° (NNE) 766 ? 24.4°
Drops below altitude 10° 20:03:06 10° 121° (ESE) 2,123 ? 23.3°
Sets 20:05:18 0° 121° (ESE) 2,964 ? 22.8°
